Nacogdoches, TX

9:55 AM CDT on September 24, 2017 (GMT -0500)
Mangham Regional

Weather History for KOCH - November, 2011

Change the Weather History Date:

Monday, November 14, 2011

  Actual Average Record
Temperature  
Mean Temperature 76 °F -  
Max Temperature 82 °F 65 °F 84 °F (2007)
Min Temperature 69 °F 45 °F 24 °F (2013)
Cooling Degree Days 10    
Growing Degree Days 26 (Base 50)    
Moisture  
Dew Point 65 °F    
Average Humidity 72    
Maximum Humidity 88    
Minimum Humidity 54    
Precipitation  
Precipitation 0.00 in - - ()
Sea Level Pressure  
Sea Level Pressure 29.88 in    
Wind  
Wind Speed 12 mph (South)    
Max Wind Speed 16 mph    
Max Gust Speed 23 mph    
Visibility 10 miles    
Events      
Averages and records for this station are not official NWS values.
T = Trace of Precipitation, MM = Missing Value Source: NWS Daily Summary

Daily Weather History Graph

Daily Weather History Graph

Search for Another Location

Airport or City:

Trip Planner

Search our weather history database for the weather conditions in past years. The results will help you decide how hot, cold, wet, or windy it might be!

Date:

Astronomy

Nov. 14, 2011 Rise Set
Actual Time 6:45 AM CST 5:20 PM CST
Civil Twilight 6:19 AM CST 5:46 PM CST
Nautical Twilight 5:50 AM CST 6:15 PM CST
Astronomical Twilight 5:21 AM CST 6:44 PM CST
Moon 8:32 PM CST (11/14) 9:59 AM CST (11/14)
Length of Visible Light 11h 26m
Length of Day
10h 34m
Waning Gibbous, 86% of the Moon is Illuminated
Nov 14
Waning Gibbous
Nov 18
Last Quarter
Nov 25
New
Dec 2
First Quarter
Dec 10
Full

Hourly Weather History & Observations

Time (CST) Temp. Heat Index Dew Point Humidity Pressure Visibility Wind Dir Wind Speed Gust Speed Precip Events Conditions
12:15 AM 73.4 °F - 66.2 °F 78% 29.92 in 10.0 mi South 12.7 mph 17.3 mph N/A   Overcast
12:35 AM 71.6 °F - 66.2 °F 83% 29.92 in 10.0 mi SSW 11.5 mph 18.4 mph N/A   Overcast
12:55 AM 73.4 °F - 66.2 °F 78% 29.92 in 10.0 mi SSW 13.8 mph 19.6 mph N/A   Overcast
1:15 AM 71.6 °F - 66.2 °F 83% 29.92 in 10.0 mi SSW 11.5 mph - N/A   Overcast
1:35 AM 71.6 °F - 66.2 °F 83% 29.92 in 10.0 mi SSW 12.7 mph - N/A   Overcast
1:55 AM 71.6 °F - 66.2 °F 83% 29.92 in 10.0 mi South 11.5 mph - N/A   Overcast
2:15 AM 71.6 °F - 66.2 °F 83% 29.92 in 10.0 mi SSW 15.0 mph 18.4 mph N/A   Overcast
2:35 AM 71.6 °F - 66.2 °F 83% 29.92 in 10.0 mi South 11.5 mph - N/A   Overcast
2:55 AM 71.6 °F - 66.2 °F 83% 29.91 in 10.0 mi South 9.2 mph - N/A   Overcast
3:35 AM 71.6 °F - 66.2 °F 83% 29.90 in 10.0 mi South 11.5 mph - N/A   Mostly Cloudy
3:55 AM 71.6 °F - 66.2 °F 83% 29.90 in 10.0 mi SSW 12.7 mph - N/A   Overcast
4:15 AM 71.6 °F - 66.2 °F 83% 29.90 in 10.0 mi SSW 15.0 mph - N/A   Overcast
4:35 AM 71.6 °F - 66.2 °F 83% 29.90 in 10.0 mi SSW 16.1 mph - N/A   Overcast
4:55 AM 71.6 °F - 66.2 °F 83% 29.90 in 10.0 mi SSW 12.7 mph 17.3 mph N/A   Overcast
5:15 AM 71.6 °F - 64.4 °F 78% 29.90 in 10.0 mi SSW 10.4 mph - N/A   Mostly Cloudy
5:35 AM 69.8 °F - 64.4 °F 83% 29.91 in 10.0 mi South 11.5 mph - N/A   Scattered Clouds
6:15 AM 69.8 °F - 66.2 °F 88% 29.92 in 10.0 mi SSW 9.2 mph - N/A   Mostly Cloudy
6:35 AM 69.8 °F - 66.2 °F 88% 29.92 in 10.0 mi SSW 8.1 mph - N/A   Overcast
6:55 AM 69.8 °F - 66.2 °F 88% 29.92 in 10.0 mi SSW 8.1 mph - N/A   Overcast
7:35 AM 71.6 °F - 66.2 °F 83% 29.93 in 10.0 mi South 9.2 mph - N/A   Overcast
7:55 AM 71.6 °F - 66.2 °F 83% 29.93 in 10.0 mi South 11.5 mph - N/A   Scattered Clouds
8:15 AM 71.6 °F - 66.2 °F 83% 29.93 in 10.0 mi South 10.4 mph - N/A   Partly Cloudy
8:35 AM 73.4 °F - 66.2 °F 78% 29.93 in 10.0 mi South 11.5 mph - N/A   Scattered Clouds
8:55 AM 73.4 °F - 66.2 °F 78% 29.93 in 10.0 mi South 12.7 mph 23.0 mph N/A   Scattered Clouds
9:15 AM 73.4 °F - 66.2 °F 78% 29.93 in 10.0 mi SSW 12.7 mph 19.6 mph N/A   Partly Cloudy
9:35 AM 75.2 °F - 66.2 °F 73% 29.93 in 10.0 mi SSW 11.5 mph - N/A   Mostly Cloudy
9:55 AM 77.0 °F - 66.2 °F 69% 29.93 in 10.0 mi SSW 13.8 mph 19.6 mph N/A   Mostly Cloudy
10:35 AM 77.0 °F - 66.2 °F 69% 29.94 in 10.0 mi SSW 16.1 mph - N/A   Overcast
10:55 AM 78.8 °F - 66.2 °F 65% 29.93 in 10.0 mi SSW 12.7 mph - N/A   Overcast
11:15 AM 78.8 °F - 66.2 °F 65% 29.92 in 10.0 mi South 11.5 mph - N/A   Mostly Cloudy
11:35 AM 78.8 °F - 64.4 °F 61% 29.91 in 10.0 mi SW 11.5 mph 19.6 mph N/A   Overcast
11:55 AM 78.8 °F - 64.4 °F 61% 29.90 in 10.0 mi SW 10.4 mph 21.9 mph N/A   Overcast
12:15 PM 78.8 °F - 64.4 °F 61% 29.89 in 10.0 mi WSW 11.5 mph - N/A   Overcast
12:35 PM 78.8 °F - 62.6 °F 57% 29.88 in 10.0 mi WSW 11.5 mph 17.3 mph N/A   Overcast
12:55 PM 80.6 °F 82.3 °F 64.4 °F 58% 29.87 in 10.0 mi SW 12.7 mph 18.4 mph N/A   Overcast
1:15 PM 80.6 °F 82.3 °F 64.4 °F 58% 29.85 in 10.0 mi SSW 13.8 mph - N/A   Overcast
1:35 PM 82.4 °F 83.9 °F 64.4 °F 54% 29.84 in 10.0 mi SSW 12.7 mph 21.9 mph N/A   Mostly Cloudy
1:55 PM 80.6 °F 82.3 °F 64.4 °F 58% 29.84 in 10.0 mi SSW 13.8 mph 19.6 mph N/A   Overcast
2:15 PM 82.4 °F 83.9 °F 64.4 °F 54% 29.82 in 10.0 mi SSW 12.7 mph 18.4 mph N/A   Mostly Cloudy
2:35 PM 82.4 °F 83.9 °F 64.4 °F 54% 29.82 in 10.0 mi SSW 13.8 mph 21.9 mph N/A   Mostly Cloudy
2:55 PM 80.6 °F 82.3 °F 64.4 °F 58% 29.81 in 10.0 mi South 10.4 mph - N/A   Mostly Cloudy
3:15 PM 80.6 °F 82.3 °F 64.4 °F 58% 29.80 in 10.0 mi South 8.1 mph - N/A   Overcast
3:35 PM 82.4 °F 83.9 °F 64.4 °F 54% 29.80 in 10.0 mi South 10.4 mph - N/A   Mostly Cloudy
3:55 PM 80.6 °F 82.3 °F 64.4 °F 58% 29.80 in 10.0 mi South 10.4 mph - N/A   Mostly Cloudy
4:15 PM 80.6 °F 82.3 °F 64.4 °F 58% 29.80 in 10.0 mi South 9.2 mph - N/A   Mostly Cloudy
4:35 PM 78.8 °F - 64.4 °F 61% 29.80 in 10.0 mi South 9.2 mph - N/A   Mostly Cloudy
4:55 PM 78.8 °F - 64.4 °F 61% 29.81 in 10.0 mi South 9.2 mph - N/A   Scattered Clouds
5:15 PM 77.0 °F - 62.6 °F 61% 29.81 in 10.0 mi SSE 4.6 mph - N/A   Partly Cloudy
5:35 PM 75.2 °F - 62.6 °F 65% 29.82 in 10.0 mi SSE 8.1 mph - N/A   Scattered Clouds
5:55 PM 75.2 °F - 62.6 °F 65% 29.82 in 10.0 mi SSE 5.8 mph - N/A   Mostly Cloudy
6:15 PM 75.2 °F - 64.4 °F 69% 29.83 in 10.0 mi SSE 5.8 mph - N/A   Mostly Cloudy
6:35 PM 75.2 °F - 64.4 °F 69% 29.83 in 10.0 mi SSE 9.2 mph - N/A   Scattered Clouds
6:55 PM 75.2 °F - 64.4 °F 69% 29.83 in 10.0 mi South 9.2 mph - N/A   Clear
7:15 PM 75.2 °F - 64.4 °F 69% 29.83 in 10.0 mi South 11.5 mph - N/A   Clear
7:35 PM 73.4 °F - 64.4 °F 73% 29.83 in 10.0 mi South 9.2 mph - N/A   Clear
7:55 PM 73.4 °F - 64.4 °F 73% 29.83 in 10.0 mi SSE 9.2 mph - N/A   Clear
8:15 PM 73.4 °F - 64.4 °F 73% 29.83 in 10.0 mi South 9.2 mph - N/A   Clear
8:35 PM 73.4 °F - 64.4 °F 73% 29.83 in 10.0 mi South 10.4 mph - N/A   Clear
8:55 PM 71.6 °F - 64.4 °F 78% 29.84 in 10.0 mi South 9.2 mph - N/A   Clear
9:15 PM 71.6 °F - 64.4 °F 78% 29.84 in 10.0 mi South 11.5 mph - N/A   Clear
9:35 PM 71.6 °F - 64.4 °F 78% 29.86 in 10.0 mi South 6.9 mph - N/A   Clear
9:55 PM 71.6 °F - 64.4 °F 78% 29.86 in 10.0 mi South 9.2 mph - N/A   Clear
10:15 PM 69.8 °F - 64.4 °F 83% 29.86 in 10.0 mi South 8.1 mph - N/A   Clear
10:35 PM 69.8 °F - 64.4 °F 83% 29.86 in 10.0 mi South 8.1 mph - N/A   Partly Cloudy
10:55 PM 69.8 °F - 64.4 °F 83% 29.86 in 10.0 mi South 6.9 mph - N/A   Scattered Clouds
11:15 PM 69.8 °F - 64.4 °F 83% 29.85 in 10.0 mi South 6.9 mph - N/A   Mostly Cloudy
11:35 PM 69.8 °F - 64.4 °F 83% 29.85 in 10.0 mi SSE 5.8 mph - N/A   Scattered Clouds
11:55 PM 68.0 °F - 62.6 °F 83% 29.85 in 10.0 mi SSE 4.6 mph - N/A   Clear